User: anonymous   Login
Location: Unspecified
(0.0000°N, 0.0000°E)
Time: 00:06:03
(UTC+00:00)
Language:

STRAND 1 - Orbit

View from above orbital plane
View from above orbital plane
View from above satellite
View from above satellite

Ground track
Ground track

The orbit data is extracted from the following two-line orbital elements,

1 39090U 13009E   21023.81095815  .00000049  00000-0  32291-4 0  9993
2 39090  98.4365 229.3202 0009042 356.3799   3.7319 14.35165116414314
Epoch (UTC): 23 January 2021 19:27:46
Eccentricity: 0.0009042
inclination: 98.4365°
perigee height: 768 km
apogee height: 781 km
right ascension of ascending node: 229.3202°
argument of perigee: 356.3799°
revolutions per day: 14.35165116
mean anomaly at epoch: 3.7319°
orbit number at epoch: 41431

The dashed part of the orbit path shows where the satellite is in the earth's shadow,  

DLR